Location: ??????
(56.0120°N, 39.1740°E)
Time: 11:53:50
(UTC+00:00)

COSMOS 2428 - Pass Details

Date: 14 April 2026
Orbit: 843 x 855 km, 70.9° (Epoch: 10 May)

Event Time Altitude Azimuth Distance (km) Brightness Sun altitude
Rises 18:55:53 0° 229° (SW) 3,419 5.8 -17.6°
Reaches altitude 10° 18:58:22 10° 233° (SW) 2,487 5.2 -17.8°
Maximum altitude 19:04:00 57° 312° (NW) 1,003 3.4 -18.3°
Drops below altitude 10° 19:09:40 10° 32° (NNE) 2,499 5.4 -18.7°
Sets 19:12:12 0° 36° (NE) 3,438 6.1 -18.9°
